Time,TemperatureF,DewpointF,PressureIn,WindDirection,WindDirectionDegrees,WindSpeedMPH,WindSpeedGustMPH,Humidity,HourlyPrecipIn,Conditions,Clouds,dailyrainin,SolarRadiationWatts/m^2,SoftwareType,DateUTC
2013-05-07 00:12:00,59.0,51.0,-100.00,WNW,290,4.0,4.0,74,0.00,,,0.00,0.000000,,2013-05-07 05:12:00,
2013-05-07 00:22:00,59.0,51.0,-100.00,WNW,290,4.0,4.0,74,0.00,,,0.00,0.000000,,2013-05-07 05:22:00,
2013-05-07 00:32:00,59.0,51.0,-100.00,WNW,290,4.0,4.0,74,0.00,,,0.00,0.000000,,2013-05-07 05:32:00,
2013-05-07 00:42:00,59.0,51.0,-100.00,WNW,290,4.0,4.0,74,0.00,,,0.00,0.000000,,2013-05-07 05:42:00,
2013-05-07 01:12:00,57.0,51.0,-100.00,WNW,291,3.0,4.0,80,0.00,,,0.00,0.000000,,2013-05-07 06:12:00,
2013-05-07 01:22:00,57.0,51.0,-100.00,WNW,291,3.0,4.0,80,0.00,,,0.00,0.000000,,2013-05-07 06:22:00,
2013-05-07 01:32:00,57.0,51.0,-100.00,WNW,291,3.0,4.0,80,0.00,,,0.00,0.000000,,2013-05-07 06:32:00,
2013-05-07 01:42:00,57.0,51.0,-100.00,WNW,291,3.0,4.0,80,0.00,,,0.00,0.000000,,2013-05-07 06:42:00,
2013-05-07 02:11:00,55.0,49.0,-100.00,WNW,287,4.0,5.0,81,0.00,,,0.00,0.000000,,2013-05-07 07:11:00,
2013-05-07 02:22:00,55.0,49.0,-100.00,WNW,287,4.0,5.0,81,0.00,,,0.00,0.000000,,2013-05-07 07:22:00,
2013-05-07 02:31:00,55.0,49.0,-100.00,WNW,287,4.0,5.0,81,0.00,,,0.00,0.000000,,2013-05-07 07:31:00,
2013-05-07 02:42:00,55.0,49.0,-100.00,WNW,287,4.0,5.0,81,0.00,,,0.00,0.000000,,2013-05-07 07:42:00,
2013-05-07 03:11:00,54.0,50.0,-100.00,WNW,303,4.0,6.0,85,0.00,,,0.00,0.000000,,2013-05-07 08:11:00,
2013-05-07 03:21:00,54.0,50.0,-100.00,WNW,303,4.0,6.0,85,0.00,,,0.00,0.000000,,2013-05-07 08:21:00,
2013-05-07 03:32:00,54.0,50.0,-100.00,WNW,303,4.0,6.0,85,0.00,,,0.00,0.000000,,2013-05-07 08:32:00,
2013-05-07 03:42:00,54.0,50.0,-100.00,WNW,303,4.0,6.0,85,0.00,,,0.00,0.000000,,2013-05-07 08:42:00,
2013-05-07 04:11:00,53.0,49.0,-100.00,NW,305,4.0,6.0,86,0.00,,,0.00,0.000000,,2013-05-07 09:11:00,
2013-05-07 04:22:00,53.0,49.0,-100.00,NW,305,4.0,6.0,86,0.00,,,0.00,0.000000,,2013-05-07 09:22:00,
2013-05-07 04:33:00,53.0,49.0,-100.00,NW,305,4.0,6.0,86,0.00,,,0.00,0.000000,,2013-05-07 09:33:00,
2013-05-07 04:42:00,53.0,49.0,-100.00,NW,305,4.0,6.0,86,0.00,,,0.00,0.000000,,2013-05-07 09:42:00,
2013-05-07 05:12:00,52.0,49.0,-100.00,NNW,338,3.0,5.0,88,0.00,,,0.00,0.000000,,2013-05-07 10:12:00,
2013-05-07 05:23:00,52.0,49.0,-100.00,NNW,338,3.0,5.0,88,0.00,,,0.00,0.000000,,2013-05-07 10:23:00,
2013-05-07 05:32:00,52.0,49.0,-100.00,NNW,338,3.0,5.0,88,0.00,,,0.00,0.000000,,2013-05-07 10:32:00,
2013-05-07 05:42:00,52.0,49.0,-100.00,NNW,338,3.0,5.0,88,0.00,,,0.00,0.000000,,2013-05-07 10:42:00,
2013-05-07 06:12:00,52.0,48.0,-100.00,North,3,4.0,7.0,86,0.00,,,0.00,0.000000,,2013-05-07 11:12:00,
2013-05-07 06:22:00,52.0,48.0,-100.00,North,3,4.0,7.0,86,0.00,,,0.00,0.000000,,2013-05-07 11:22:00,
2013-05-07 06:32:00,52.0,48.0,-100.00,North,3,4.0,7.0,86,0.00,,,0.00,0.000000,,2013-05-07 11:32:00,
2013-05-07 06:42:00,52.0,48.0,-100.00,North,3,4.0,7.0,86,0.00,,,0.00,0.000000,,2013-05-07 11:42:00,
2013-05-07 07:11:00,53.0,49.0,-100.00,NNW,340,4.0,5.0,86,0.00,,,0.00,17.000000,,2013-05-07 12:11:00,
2013-05-07 07:21:00,53.0,49.0,-100.00,NNW,340,4.0,5.0,86,0.00,,,0.00,17.000000,,2013-05-07 12:21:00,
2013-05-07 07:32:00,53.0,49.0,-100.00,NNW,340,4.0,5.0,86,0.00,,,0.00,17.000000,,2013-05-07 12:32:00,
2013-05-07 07:42:00,53.0,49.0,-100.00,NNW,340,4.0,5.0,86,0.00,,,0.00,17.000000,,2013-05-07 12:42:00,
2013-05-07 08:11:00,57.0,51.0,-100.00,NNE,20,2.0,5.0,81,0.00,,,0.00,139.000000,,2013-05-07 13:11:00,
2013-05-07 08:21:00,57.0,51.0,-100.00,NNE,20,2.0,5.0,81,0.00,,,0.00,139.000000,,2013-05-07 13:21:00,
2013-05-07 08:32:00,57.0,51.0,-100.00,NNE,20,2.0,5.0,81,0.00,,,0.00,139.000000,,2013-05-07 13:32:00,
2013-05-07 08:42:00,57.0,51.0,-100.00,NNE,20,2.0,5.0,81,0.00,,,0.00,139.000000,,2013-05-07 13:42:00,
2013-05-07 09:11:00,64.0,54.0,-100.00,NNE,18,3.0,6.0,69,0.00,,,0.00,342.000000,,2013-05-07 14:11:00,
2013-05-07 09:21:00,64.0,54.0,-100.00,NNE,18,3.0,6.0,69,0.00,,,0.00,342.000000,,2013-05-07 14:21:00,
2013-05-07 09:32:00,64.0,54.0,-100.00,NNE,18,3.0,6.0,69,0.00,,,0.00,342.000000,,2013-05-07 14:32:00,
2013-05-07 09:42:00,64.0,54.0,-100.00,NNE,18,3.0,6.0,69,0.00,,,0.00,342.000000,,2013-05-07 14:42:00,
2013-05-07 10:12:00,70.0,50.0,-100.00,NE,56,3.0,8.0,50,0.00,,,0.00,560.000000,,2013-05-07 15:12:00,
2013-05-07 10:21:00,70.0,50.0,-100.00,NE,56,3.0,8.0,50,0.00,,,0.00,560.000000,,2013-05-07 15:21:00,
2013-05-07 10:33:00,70.0,50.0,-100.00,NE,56,3.0,8.0,50,0.00,,,0.00,560.000000,,2013-05-07 15:33:00,
2013-05-07 10:42:00,70.0,50.0,-100.00,NE,56,3.0,8.0,50,0.00,,,0.00,560.000000,,2013-05-07 15:42:00,
2013-05-07 14:11:00,78.0,46.0,-100.00,ESE,111,3.0,10.0,32,-99.99,,,0.00,1110.000000,,2013-05-07 19:11:00,
2013-05-07 14:21:00,78.0,46.0,-100.00,ESE,111,3.0,10.0,32,-99.99,,,0.00,1110.000000,,2013-05-07 19:21:00,
2013-05-07 14:32:00,78.0,46.0,-100.00,ESE,111,3.0,10.0,32,-99.99,,,0.00,1110.000000,,2013-05-07 19:32:00,
2013-05-07 14:42:00,78.0,46.0,-100.00,ESE,111,3.0,10.0,32,-99.99,,,0.00,1110.000000,,2013-05-07 19:42:00,
2013-05-07 15:12:00,78.0,44.0,-100.00,SSE,167,8.0,26.0,30,0.00,,,0.00,1050.000000,,2013-05-07 20:12:00,
2013-05-07 15:22:00,78.0,44.0,-100.00,SSE,167,8.0,26.0,30,0.00,,,0.00,1050.000000,,2013-05-07 20:22:00,
2013-05-07 15:32:00,78.0,44.0,-100.00,SSE,167,8.0,26.0,30,0.00,,,0.00,1050.000000,,2013-05-07 20:32:00,
2013-05-07 15:42:00,78.0,44.0,-100.00,SSE,167,8.0,26.0,30,0.00,,,0.00,1050.000000,,2013-05-07 20:42:00,
2013-05-07 16:11:00,78.0,47.0,-100.00,WSW,256,6.0,13.0,33,0.00,,,0.00,999.000000,,2013-05-07 21:11:00,
2013-05-07 16:22:00,78.0,47.0,-100.00,WSW,256,6.0,13.0,33,0.00,,,0.00,999.000000,,2013-05-07 21:22:00,
2013-05-07 16:32:00,78.0,47.0,-100.00,WSW,256,6.0,13.0,33,0.00,,,0.00,999.000000,,2013-05-07 21:32:00,
2013-05-07 16:42:00,78.0,47.0,-100.00,WSW,256,6.0,13.0,33,0.00,,,0.00,999.000000,,2013-05-07 21:42:00,
2013-05-07 17:13:00,74.0,47.0,-100.00,SSW,201,6.0,12.0,39,0.00,,,0.00,512.000000,,2013-05-07 22:13:00,
2013-05-07 17:22:00,74.0,47.0,-100.00,SSW,201,6.0,12.0,39,0.00,,,0.00,512.000000,,2013-05-07 22:22:00,
2013-05-07 17:33:00,74.0,47.0,-100.00,SSW,201,6.0,12.0,39,0.00,,,0.00,512.000000,,2013-05-07 22:33:00,
2013-05-07 17:42:00,74.0,47.0,-100.00,SSW,201,6.0,12.0,39,0.00,,,0.00,512.000000,,2013-05-07 22:42:00,
2013-05-07 18:12:00,74.0,46.0,-100.00,SSE,166,3.0,8.0,37,0.00,,,0.00,264.000000,,2013-05-07 23:12:00,
2013-05-07 18:21:00,74.0,46.0,-100.00,SSE,166,3.0,8.0,37,0.00,,,0.00,264.000000,,2013-05-07 23:21:00,
2013-05-07 18:32:00,74.0,46.0,-100.00,SSE,166,3.0,8.0,37,0.00,,,0.00,264.000000,,2013-05-07 23:32:00,
2013-05-07 18:42:00,74.0,46.0,-100.00,SSE,166,3.0,8.0,37,0.00,,,0.00,264.000000,,2013-05-07 23:42:00,
2013-05-07 19:12:00,75.0,47.0,-100.00,SE,146,4.0,8.0,37,0.00,,,0.00,357.000000,,2013-05-08 00:12:00,
2013-05-07 19:21:00,75.0,47.0,-100.00,SE,146,4.0,8.0,37,0.00,,,0.00,357.000000,,2013-05-08 00:21:00,
2013-05-07 19:32:00,75.0,47.0,-100.00,SE,146,4.0,8.0,37,0.00,,,0.00,357.000000,,2013-05-08 00:32:00,
2013-05-07 19:42:00,75.0,47.0,-100.00,SE,146,4.0,8.0,37,0.00,,,0.00,357.000000,,2013-05-08 00:42:00,
2013-05-07 20:11:00,73.0,46.0,-100.00,SE,142,4.0,7.0,38,0.00,,,0.00,153.000000,,2013-05-08 01:11:00,
2013-05-07 20:22:00,73.0,46.0,-100.00,SE,142,4.0,7.0,38,0.00,,,0.00,153.000000,,2013-05-08 01:22:00,
2013-05-07 20:32:00,73.0,46.0,-100.00,SE,142,4.0,7.0,38,0.00,,,0.00,153.000000,,2013-05-08 01:32:00,
2013-05-07 20:42:00,73.0,46.0,-100.00,SE,142,4.0,7.0,38,0.00,,,0.00,153.000000,,2013-05-08 01:42:00,
2013-05-07 21:12:00,71.0,45.0,-100.00,South,170,5.0,5.0,39,0.00,,,0.00,11.000000,,2013-05-08 02:12:00,
2013-05-07 21:22:00,71.0,45.0,-100.00,South,170,5.0,5.0,39,0.00,,,0.00,11.000000,,2013-05-08 02:22:00,
2013-05-07 21:32:00,71.0,45.0,-100.00,South,170,5.0,5.0,39,0.00,,,0.00,11.000000,,2013-05-08 02:32:00,
2013-05-07 21:42:00,71.0,45.0,-100.00,South,170,5.0,5.0,39,0.00,,,0.00,11.000000,,2013-05-08 02:42:00,
2013-05-07 22:11:00,66.0,46.0,-100.00,SSE,149,4.0,5.0,48,0.00,,,0.00,0.000000,,2013-05-08 03:11:00,
2013-05-07 22:21:00,66.0,46.0,-100.00,SSE,149,4.0,5.0,48,0.00,,,0.00,0.000000,,2013-05-08 03:21:00,
2013-05-07 22:32:00,66.0,46.0,-100.00,SSE,149,4.0,5.0,48,0.00,,,0.00,0.000000,,2013-05-08 03:32:00,
2013-05-07 22:43:00,66.0,46.0,-100.00,SSE,149,4.0,5.0,48,0.00,,,0.00,0.000000,,2013-05-08 03:43:00,
2013-05-07 23:13:00,63.0,47.0,-100.00,SE,127,4.0,6.0,56,0.00,,,0.00,0.000000,,2013-05-08 04:13:00,
2013-05-07 23:23:00,63.0,47.0,-100.00,SE,127,4.0,6.0,56,0.00,,,0.00,0.000000,,2013-05-08 04:23:00,
2013-05-07 23:33:00,63.0,47.0,-100.00,SE,127,4.0,6.0,56,0.00,,,0.00,0.000000,,2013-05-08 04:33:00,
2013-05-07 23:43:00,63.0,47.0,-100.00,SE,127,4.0,6.0,56,0.00,,,0.00,0.000000,,2013-05-08 04:43:00,